Regional Weather Roundup
Issued by NWS

Home | Current Version | Previous Version | Text Only | Print | Product List | Glossary Off
Versions: 1 2 3 4 5 6 7 8 9 10 11 12 13 14 15 16 17 18 19 20 21 22 23 24 25 26 27 28 29 30 31 32 33 34 35 36 37 38 39 40 41 42 43 44 45 46 47 48 49 50

000
ASUS43 KFSD 181110
RWRSD

WEATHER ROUNDUP FOR SOUTH DAKOTA
NATIONAL WEATHER SERVICE SIOUX FALLS SD
600 AM CDT FRI AUG 18 2017

NOTE: "FAIR" INDICATES FEW OR NO CLOUDS BELOW 12,000 FEET WITH NO
SIGNIFICANT WEATHER AND/OR OBSTRUCTIONS TO VISIBILITY.


SDZ001>005-009-010-012>017-181200-
NORTHWEST AND NORTH CENTRAL SOUTH DAKOTA

CITY           SKY/WX    TMP DP  RH WIND       PRES   REMARKS
BUFFALO          N/A     59  45  59 NW7       29.93S
FAITH            N/A     58  46  64 NW8       29.94F
MOBRIDGE       CLEAR     60  56  86 W3        29.86R
$$

SDZ012>016-024>037-041>051-057-063-072>074-181200-
SOUTHWEST AND SOUTH CENTRAL SOUTH DAKOTA

CITY           SKY/WX    TMP DP  RH WIND       PRES   REMARKS
RAPID CTY ARPT PTCLDY    64  46  52 NW13      29.99S
PIERRE         CLEAR     57  55  93 S6        29.88F
CUSTER         CLOUDY    56  39  53 W5        30.15S
ELLSWORTH AFB  CLOUDY    62  46  55 N12       30.00R
PHILIP         CLEAR     55  50  83 W10       29.93S
PINE RIDGE     CLEAR     53  49  86 SW5       30.04S
SPEARFISH      FAIR      59  45  58 W5        30.05R
WINNER         FAIR      60  56  86 SW7       29.91F
$$

SDZ004>011-016>023-039-040-181200-
NORTHEAST SOUTH DAKOTA

CITY           SKY/WX    TMP DP  RH WIND       PRES   REMARKS
ABERDEEN       CLOUDY    57  57 100 CALM      29.88F
WATERTOWN      CLOUDY    62  58  86 SE6       29.87F
BROOKINGS      LGT RAIN  60  58  92 CALM      29.93R
SISSETON         N/A     62  60  93 CALM      29.84F
$$

SDZ017-020-022-023-036>040-048>070-181200-
SOUTHEAST SOUTH DAKOTA

CITY           SKY/WX    TMP DP  RH WIND       PRES   REMARKS
SIOUX FALLS    CLOUDY    62  61  96 N3        29.90R
HURON          CLOUDY    60  58  92 S8        29.87S
CHAMBERLAIN    CLEAR     60  60 100 SE6       29.90F
MITCHELL       PTCLDY    60  59  96 E5        29.89F
YANKTON        PTCLDY    59  57  93 NW6       29.92R
$$

ABBREVIATIONS USED IN REMARKS
   TC - TEMPERATURE IN CELSIUS
  WCI - WIND CHILL INDEX
   HX - HEAT INDEX
  VSB - VISIBILITY




USA.gov is the U.S. government's official web portal to all federal, state and local government web resources and services.